map of PLL home
Great Circle Mapper logo
PLL - Airport
Location
City:  Manaus, Amazonas, Brazil
Name:Manaus AFB
Old (Alt.):Ponta Pelada Airport
ICAO:SBMN
IATA:PLL

Details
Type:Airport (Aerodrome, Airfield)
Use:Military
Latitude:308'46"S (-3.146041)
Longitude:5959'11"W (-59.986299)
Datum:WGS 1984
Elevation:267 ft (81 m)
Variation:15.60W (WMM2015 magnetic declination)
-0.12 annual change
Runways:1
Longest:7605 × 148 ft (2318 × 45 m), paved

Time
Time Zone:UTC-4
Local Time:

Weather
METAR:SBMN 052300Z 30005KT 9999 SCT009 BKN100 26/23 Q1012
TAF:SBMN 051600Z 0518/0618 15008KT 9999 SCT015 FEW025TCU TN25/0608Z TX32/0518Z
BECMG 0519/0521 19005KT FEW017
BECMG 0604/0606 SCT010
BECMG 0613/0615 16005KT SCT015
BECMG 0616/0618 BKN020 FEW025TCU
RMK PEN

Related Locations
Nearby:
Farthest:SMM: 12307 mi / 19806 km
Semporna, 12, MY

Find:

   beyond  
but within

Other Information
Maps:
NOTAMs:
Links:
Sources:

  
flag of Brazil
flag of Amazonas
flag of Manaus
  

Sectional Chart

Flight Planning
at skyvector.com

Satellite Image

Google Maps Satellite view

 

Copyright © 2004-2016 Karl L. Swartz. All rights reserved.
The Great Circle Mapper name and logo are trademarks of the Great Circle Mapper.
All other trademarks mentioned herein belong to their respective owners.
Please see credits for attibutions and further copyright information.

  Follow gcmap on Facebook Follow gcmap on Twitter Follow gcmap on Google+ GCmap on LinkedIn

hCard Microformat

Geo Microformat